Wetbulb
74.41 74.75 74.98 75.58 76.98 77.80 78.26 80.21 77.37 78.82 77.97 76.79 76.14 76.20 76.30 76.86 76.97 77.60 77.67 77.62 77.52 78.24 78.11 78.49 78.24 77.83 77.45 77.55 77.32 76.84 76.37 75.52 76.08 75.93 75.30 75.31 75.38 75.23 75.53 75.31 75.06 74.51 74.74
74.64 74.45 74.52 75.22 76.27 77.03 77.85 78.47 78.37 78.46 78.01 77.46 76.36 76.89 77.13 77.73 77.88 78.14 78.33 79.02 77.79 77.96 78.36 78.94 78.05 77.77 77.30 77.05 76.94 76.33 76.07 75.98 76.41 76.04 75.78 75.56 75.11 75.04 74.80 74.83 75.17 75.23 74.60
74.97 75.07 75.05 75.62 76.33 77.21 78.76 78.92 78.94 78.67 77.65 77.93 77.03 77.38 77.00 76.85 77.06 78.05 78.02 77.96 78.54 78.57 79.02 78.81 78.29 78.24 77.42 77.32 77.16 76.98 76.66 76.84 76.69 76.37 75.90 75.67 75.44 75.32 75.17 75.04 74.87 75.20 74.82
75.64 75.72 75.33 75.54 76.80 77.47 78.32 77.89 77.63 77.52 77.36 77.06 76.93 76.31 75.97 76.24 76.25 76.31 77.41 77.19 77.83 78.63 77.98 78.23 77.87 77.79 77.09 77.02 76.85 76.78 76.59 76.95 76.75 76.37 76.20 75.97 75.75 75.42 75.25 75.10 75.02 74.82 74.67
76.18 76.27 75.85 76.42 77.74 76.97 77.35 77.64 77.47 76.95 76.02 76.11 75.18 75.47 75.52 75.26 76.13 76.20 76.87 77.74 77.01 77.03 77.60 77.74 77.60 77.45 76.81 76.70 76.99 76.58 76.67 76.60 76.55 75.77 75.39 75.37 75.44 75.65 75.17 74.95 74.90 74.50 74.37
76.29 76.56 76.46 77.10 77.30 76.65 77.38 77.31 76.78 76.55 76.07 75.63 74.69 75.18 76.29 75.93 75.67 75.30 75.85 76.71 77.56 77.11 77.19 77.88 77.00 76.73 77.57 77.47 77.50 77.38 75.99 75.70 75.09 74.54 74.46 74.24 74.32 74.95 75.02 75.02 74.82 74.69 74.45
75.97 76.84 76.38 76.81 77.61 77.00 78.33 77.78 76.79 75.72 75.14 76.09 74.68 74.48 74.97 75.71 75.32 74.66 74.78 75.57 76.25 76.46 77.20 77.53 76.87 76.35 76.40 77.35 77.30 77.30 75.97 75.61 75.09 73.96 73.23 73.39 73.90 74.19 73.94 73.74 72.97 72.70 73.08
76.12 76.24 76.72 77.04 77.42 76.78 77.95 77.32 76.43 76.07 74.73 75.26 73.26 73.21 69.99 71.89 72.68 73.28 73.61 73.72 75.35 75.64 75.01 76.69 77.49 77.62 76.99 76.87 77.49 76.83 76.70 76.00 75.15 74.13 73.47 73.72 74.21 73.78 72.71 71.84 71.62 71.47 71.42
75.95 75.99 76.46 77.12 77.70 77.85 76.52 77.71 76.74 75.59 73.99 75.29 75.58 72.53 69.79 68.60 70.85 72.38 72.24 73.06 73.75 74.31 74.96 75.15 76.26 77.95 78.21 77.53 76.93 76.74 76.58 76.00 75.79 74.67 74.14 73.50 73.53 73.23 72.77 71.96 71.40 70.95 70.70
75.76 75.70 76.51 77.39 78.04 77.53 77.60 77.47 77.04 75.73 75.26 73.18 74.57 74.40 74.34 73.09 69.38 69.32 72.06 72.17 72.86 72.99 74.27 74.18 74.50 75.38 77.43 78.16 77.96 77.11 75.97 75.11 75.82 75.56 74.81 73.94 73.45 73.14 72.65 72.11 71.32 70.71 70.29
75.66 75.31 76.03 77.38 77.70 77.46 77.88 77.97 77.25 75.99 74.86 74.13 73.77 74.01 72.83 73.06 72.98 70.16 68.65 71.52 72.27 72.02 72.20 72.72 73.01 74.00 75.51 77.04 76.90 76.71 75.05 75.27 75.24 75.46 75.40 75.32 74.60 73.97 73.45 72.90 72.26 70.88 70.46
74.57 75.33 76.23 77.33 77.97 77.88 77.54 77.57 77.81 77.28 76.31 75.26 74.40 74.48 73.21 71.91 71.71 70.44 69.33 70.86 71.14 73.14 74.32 73.35 73.19 73.39 74.10 75.36 76.03 75.66 75.32 74.76 74.43 74.29 74.33 74.86 75.29 75.12 74.57 73.95 73.20 71.66 70.84
73.67 74.47 76.56 76.75 76.97 77.99 78.12 78.22 77.82 77.44 76.82 75.26 74.92 75.35 74.33 73.63 73.96 72.15 71.13 70.26 70.46 73.26 73.04 73.63 75.15 75.55 75.57 75.79 76.49 75.47 74.95 74.54 73.64 72.72 72.77 73.27 73.94 74.73 74.97 74.89 74.10 72.75 71.53
74.18 75.67 76.24 76.73 77.33 77.57 77.88 78.19 77.51 77.32 77.59 76.22 75.75 75.64 76.83 77.40 77.26 73.88 72.04 70.99 68.87 70.40 71.98 72.37 74.02 74.87 75.44 76.17 76.62 74.20 77.03 74.09 73.31 71.93 71.16 71.37 71.85 72.55 73.48 73.99 73.72 72.91 72.48
74.57 75.18 76.20 76.80 76.69 76.95 77.20 77.70 76.40 76.62 76.91 76.14 75.40 75.61 74.12 74.18 74.25 74.32 74.14 72.38 70.85 68.02 68.89 72.58 71.31 74.74 75.01 75.43 74.72 75.44 75.37 71.86 72.72 71.85 70.75 70.26 70.28 70.67 71.13 71.86 71.86 71.13 70.71
75.62 75.40 76.45 76.46 76.31 75.76 75.07 75.61 74.76 76.09 76.64 75.99 75.26 74.26 73.77 74.87 76.49 77.48 75.90 73.65 72.73 70.51 68.69 72.77 73.22 74.16 73.85 72.90 74.06 74.31 73.35 70.66 70.14 70.04 70.08 69.32 69.43 69.52 69.69 70.13 70.47 70.01 69.60
75.88 75.91 75.10 74.09 73.69 73.57 73.92 73.86 74.24 75.15 75.09 74.92 74.73 73.03 73.39 73.34 74.08 74.43 73.36 72.32 71.58 71.46 69.66 71.66 73.92 73.71 73.74 73.09 71.94 72.71 73.38 71.94 74.58 69.57 68.96 68.79 68.42 68.39 68.64 68.82 69.08 69.12 69.00
75.38 73.79 71.67 70.96 71.06 71.80 72.72 72.79 72.50 73.02 72.45 72.04 72.32 69.48 69.39 71.47 73.75 73.75 72.66 71.58 71.32 71.82 70.63 70.32 72.12 71.66 71.76 72.66 72.13 72.06 72.94 73.24 72.53 71.71 68.94 68.12 67.52 66.86 66.61 66.82 66.75 66.73 66.33
72.43 69.69 69.28 68.28 70.01 71.00 71.55 72.41 71.41 71.11 70.80 70.19 71.26 70.64 70.01 71.86 71.59 71.12 70.69 70.95 71.67 71.57 71.20 69.96 69.81 71.37 71.61 71.97 72.60 72.89 70.97 72.35 71.32 70.14 70.37 68.64 67.56 66.71 65.85 65.17 64.70 63.69 62.69
70.53 68.44 68.53 68.52 68.57 70.07 70.58 71.00 71.41 70.73 69.65 69.34 69.82 68.36 67.79 68.32 69.31 71.25 69.94 71.32 71.00 70.87 71.14 70.75 69.54 67.52 66.10 68.16 69.59 68.29 68.75 70.07 70.51 69.58 69.63 69.22 68.93 68.91 67.08 65.34 64.81 63.93 61.77
71.25 69.57 68.65 67.75 68.38 69.16 69.40 69.42 68.38 68.67 68.36 67.74 67.20 66.73 67.40 68.25 68.25 68.75 70.24 69.90 71.59 70.62 67.90 68.56 65.60 64.95 63.73 65.09 66.00 66.41 65.55 66.49 67.94 68.93 69.94 70.81 68.89 70.71 72.68 67.54 69.44 66.57 63.17
69.71 69.21 68.47 68.10 68.19 68.47 65.23 65.46 67.24 69.27 69.46 69.30 68.24 67.28 66.11 67.73 66.85 66.13 65.99 66.31 67.82 66.75 66.75 63.84 63.30 63.59 64.13 63.13 62.77 63.41 63.11 62.40 60.24 68.26 64.08 62.28 66.84 65.62 67.15 69.14 67.25 66.08 63.15
69.01 68.76 68.11 68.07 67.64 67.33 63.46 63.12 64.75 69.06 69.19 68.79 68.22 66.67 64.86 64.04 65.65 65.22 63.45 62.88 62.74 62.57 63.69 65.07 63.36 62.02 61.86 63.13 63.74 61.58 62.48 61.09 61.21 62.44 61.92 60.49 63.43 63.20 65.42 65.46 62.95 62.73 61.79
67.97 68.13 68.65 68.24 66.72 65.78 61.57 61.09 62.98 68.01 67.36 67.19 67.54 66.23 65.54 65.23 65.38 66.24 64.97 63.18 62.39 61.55 60.50 62.65 63.90 63.61 63.91 63.85 63.13 62.91 62.11 61.90 63.01 63.33 65.04 60.19 64.44 63.08 65.93 67.52 63.57 61.77 60.60
68.38 67.82 67.63 65.24 63.14 61.53 58.10 58.69 62.95 65.85 64.84 63.51 63.37 63.22 62.63 60.84 55.77 57.79 61.32 58.45 58.76 58.50 56.70 57.09 57.83 58.08 58.67 59.17 60.75 62.99 61.65 60.81 60.38 61.22 64.62 62.41 63.94 63.49 64.82 65.94 68.47 62.64 59.79
66.80 66.21 63.36 62.91 60.71 62.39 56.16 56.41 61.91 63.41 62.22 61.22 61.22 59.24 54.81 57.83 53.79 54.30 60.63 59.76 58.92 57.54 58.55 59.55 61.54 59.41 60.13 59.14 59.63 61.82 60.10 58.46 59.17 60.61 64.21 60.64 61.01 62.33 60.25 67.19 66.79 68.00 69.36
MSLP
1016.99 1017.03 1016.93 1016.83 1016.73 1016.64 1016.27 1016.30 1016.23 1015.99 1016.11 1016.28 1016.35 1016.35 1016.28 1016.26 1016.15 1016.21 1016.08 1016.46 1016.65 1016.74 1016.79 1016.92 1017.06 1017.38 1017.67 1017.76 1017.96 1018.17 1018.33 1018.58 1018.87 1019.13 1019.46 1019.63 1019.90 1020.21 1020.31 1020.59 1020.71 1020.84 1020.93
1016.62 1016.55 1016.64 1016.46 1016.29 1016.27 1016.03 1015.90 1015.77 1015.69 1015.79 1015.94 1015.87 1015.92 1015.96 1015.85 1015.78 1015.88 1015.76 1015.75 1016.29 1016.34 1016.37 1016.57 1016.73 1017.06 1017.44 1017.52 1017.70 1017.88 1018.11 1018.23 1018.44 1018.76 1019.05 1019.30 1019.64 1019.93 1020.06 1020.18 1020.33 1020.50 1020.70
1016.30 1016.36 1016.08 1016.02 1015.81 1016.03 1016.02 1015.67 1015.58 1015.53 1015.57 1015.53 1015.74 1015.59 1015.70 1015.71 1015.61 1015.61 1015.48 1015.47 1015.45 1015.90 1015.91 1016.20 1016.63 1016.71 1017.09 1017.32 1017.35 1017.50 1017.82 1017.98 1018.09 1018.31 1018.60 1018.80 1019.08 1019.21 1019.46 1019.75 1019.95 1020.10 1020.39
1015.98 1015.92 1015.73 1015.69 1015.34 1015.59 1015.68 1015.51 1015.33 1015.36 1015.35 1015.29 1015.45 1015.52 1015.55 1015.32 1015.29 1015.38 1015.26 1015.30 1015.30 1015.11 1015.83 1016.05 1016.39 1016.52 1016.69 1016.88 1017.09 1017.18 1017.51 1017.74 1017.90 1018.02 1018.18 1018.45 1018.69 1018.90 1019.12 1019.33 1019.41 1019.75 1020.06
1015.46 1015.57 1015.17 1015.04 1015.26 1015.11 1015.24 1015.29 1015.28 1015.54 1015.21 1015.20 1015.24 1015.30 1015.28 1015.13 1015.12 1014.89 1015.05 1015.05 1015.17 1015.22 1015.12 1015.69 1016.13 1016.44 1016.40 1016.53 1016.81 1016.99 1017.17 1017.36 1017.62 1017.85 1018.06 1018.15 1018.33 1018.56 1018.70 1018.87 1019.10 1019.38 1019.60
1015.09 1015.14 1014.80 1014.72 1014.90 1014.82 1014.99 1015.17 1015.29 1015.25 1015.21 1015.03 1014.87 1014.86 1014.94 1014.68 1014.66 1014.74 1014.71 1014.65 1014.74 1014.95 1014.92 1015.21 1015.45 1015.75 1016.19 1016.20 1016.50 1016.73 1016.89 1017.23 1017.51 1017.74 1017.90 1018.05 1018.24 1018.41 1018.47 1018.61 1018.83 1019.12 1019.28
1014.70 1014.78 1014.42 1014.40 1014.49 1014.64 1014.77 1015.02 1015.00 1015.09 1014.91 1015.09 1014.93 1014.29 1014.15 1014.11 1014.13 1014.35 1014.33 1014.30 1014.46 1014.77 1014.65 1014.92 1014.91 1015.11 1015.44 1015.99 1016.16 1016.41 1016.64 1016.96 1017.32 1017.47 1017.67 1017.89 1018.00 1018.24 1018.53 1018.64 1018.80 1018.98 1019.09
1014.27 1014.40 1014.37 1014.13 1014.25 1014.41 1014.66 1014.78 1014.97 1014.86 1014.81 1014.96 1014.53 1014.43 1013.67 1013.67 1013.83 1013.92 1014.12 1014.25 1014.29 1014.28 1014.52 1014.63 1014.63 1014.93 1015.04 1015.21 1015.56 1016.11 1016.35 1016.62 1016.96 1017.25 1017.53 1017.76 1017.98 1018.06 1018.39 1018.68 1018.80 1018.89 1018.97
1013.58 1013.75 1013.81 1013.78 1013.86 1014.13 1014.02 1014.37 1014.59 1014.72 1014.36 1014.60 1014.75 1014.40 1013.95 1013.39 1013.62 1013.68 1013.80 1013.93 1014.10 1014.05 1014.08 1014.22 1014.37 1014.47 1014.71 1014.88 1015.35 1015.66 1015.99 1016.20 1016.54 1016.85 1017.05 1017.38 1017.78 1018.07 1018.27 1018.45 1018.65 1018.69 1018.77
1013.01 1013.20 1013.26 1013.33 1013.53 1013.59 1013.69 1013.77 1014.07 1014.37 1014.58 1014.08 1014.42 1014.50 1014.52 1014.48 1013.90 1013.28 1013.49 1013.74 1014.06 1014.14 1014.01 1013.95 1013.85 1014.20 1014.29 1014.42 1014.80 1014.93 1015.40 1015.77 1016.09 1016.45 1016.75 1017.05 1017.56 1017.84 1018.12 1018.42 1018.51 1018.56 1018.62
1012.54 1012.65 1012.75 1012.79 1012.96 1013.15 1013.30 1013.56 1013.85 1014.05 1014.05 1013.96 1013.78 1014.12 1014.41 1014.27 1014.35 1014.21 1013.17 1012.99 1013.56 1013.47 1013.58 1013.73 1013.62 1013.57 1013.73 1013.91 1014.22 1014.43 1014.97 1015.24 1015.62 1016.09 1016.52 1016.79 1017.11 1017.47 1017.73 1017.98 1018.28 1018.40 1018.46
1011.67 1011.94 1012.06 1012.39 1012.62 1012.84 1013.01 1013.08 1013.36 1013.57 1013.65 1013.74 1013.62 1013.63 1013.48 1013.33 1013.39 1013.64 1013.44 1012.92 1012.79 1012.82 1013.09 1013.12 1013.24 1013.30 1013.36 1013.35 1013.63 1014.00 1014.48 1014.74 1015.08 1015.45 1015.96 1016.27 1016.49 1016.79 1017.06 1017.42 1017.76 1017.95 1018.12
1010.91 1011.16 1011.65 1011.95 1012.07 1012.34 1012.48 1012.67 1012.79 1012.81 1012.90 1013.08 1013.33 1013.40 1013.27 1013.03 1013.07 1013.25 1013.18 1012.77 1012.70 1012.51 1012.61 1012.71 1012.69 1012.65 1012.77 1012.91 1013.01 1013.69 1014.03 1014.37 1014.73 1014.97 1015.26 1015.59 1015.89 1016.20 1016.46 1016.79 1017.23 1017.52 1017.68
1010.25 1010.63 1011.09 1011.47 1011.78 1012.11 1012.15 1012.27 1012.45 1012.39 1012.57 1012.65 1012.75 1012.63 1012.76 1012.99 1013.10 1012.87 1012.84 1012.98 1012.75 1012.32 1012.25 1012.13 1012.43 1012.63 1012.58 1012.56 1012.62 1013.32 1013.26 1014.07 1014.32 1014.63 1014.68 1014.89 1015.16 1015.49 1015.82 1016.09 1016.54 1016.91 1017.15
1010.08 1010.51 1010.84 1011.21 1011.42 1011.66 1012.07 1012.16 1011.88 1011.89 1012.03 1012.26 1012.16 1012.32 1012.31 1012.07 1012.44 1012.72 1012.87 1012.85 1012.48 1011.93 1011.39 1011.51 1011.91 1012.22 1012.33 1012.51 1012.66 1013.03 1013.23 1013.95 1014.01 1014.25 1014.28 1014.25 1014.70 1014.95 1015.19 1015.52 1015.84 1016.17 1016.48
1009.95 1010.33 1010.71 1010.96 1011.13 1011.22 1011.73 1012.06 1011.80 1011.49 1011.52 1011.44 1011.60 1011.75 1012.01 1011.71 1011.87 1012.15 1012.53 1012.71 1012.51 1012.32 1011.59 1011.52 1011.62 1012.02 1012.30 1012.59 1012.76 1013.10 1013.25 1013.61 1013.64 1013.88 1013.87 1013.88 1014.08 1014.29 1014.53 1014.79 1015.09 1015.45 1015.84
1009.89 1010.35 1011.14 1011.78 1012.22 1012.24 1011.47 1011.48 1011.41 1011.16 1010.86 1010.94 1011.01 1010.78 1010.95 1011.53 1011.51 1011.62 1012.40 1012.44 1012.43 1012.25 1011.68 1011.29 1011.83 1012.09 1012.36 1012.59 1012.87 1013.05 1013.01 1013.16 1012.69 1013.26 1013.32 1013.41 1013.69 1013.70 1013.96 1014.07 1014.40 1014.69 1015.09
1009.69 1010.23 1011.09 1012.14 1012.44 1012.40 1012.32 1011.50 1011.03 1010.77 1010.48 1010.63 1010.84 1011.05 1010.82 1011.00 1011.12 1011.66 1011.90 1011.99 1012.07 1012.05 1011.86 1011.91 1012.04 1012.50 1012.57 1012.86 1013.05 1013.10 1012.75 1012.49 1012.65 1012.77 1013.04 1012.86 1013.18 1013.39 1013.47 1013.50 1013.73 1014.00 1014.27
1009.29 1010.06 1010.52 1010.93 1011.69 1012.45 1012.18 1011.64 1011.12 1010.65 1010.47 1010.53 1010.44 1010.28 1010.43 1010.64 1011.10 1011.32 1011.60 1011.71 1011.76 1011.82 1012.10 1012.02 1011.95 1012.46 1012.62 1012.89 1012.72 1012.73 1012.78 1012.77 1012.88 1012.97 1012.65 1012.49 1012.47 1012.94 1013.07 1012.96 1013.37 1013.62 1013.96
1008.56 1008.79 1008.35 1008.29 1008.93 1011.48 1011.68 1011.70 1011.09 1010.61 1010.98 1010.80 1010.79 1010.52 1010.48 1010.60 1010.80 1010.94 1011.17 1011.58 1011.83 1011.76 1012.11 1012.31 1012.26 1012.59 1012.67 1012.78 1012.49 1012.35 1012.61 1012.92 1012.93 1012.44 1012.47 1012.65 1012.63 1012.35 1012.32 1012.55 1012.77 1013.08 1013.59
1007.87 1007.92 1007.81 1008.31 1009.65 1009.19 1010.72 1011.26 1011.35 1011.23 1011.49 1011.48 1011.32 1010.96 1010.34 1010.52 1010.76 1010.73 1011.11 1011.73 1012.02 1011.81 1012.32 1012.28 1012.41 1012.27 1012.24 1012.25 1012.13 1012.40 1012.58 1012.74 1012.62 1012.81 1012.36 1012.27 1012.11 1011.62 1011.56 1011.88 1012.10 1012.44 1012.72
1007.95 1008.36 1008.71 1009.78 1010.17 1009.31 1010.40 1011.01 1011.25 1011.40 1011.31 1010.97 1011.27 1011.42 1011.21 1011.15 1011.18 1011.68 1011.76 1011.83 1012.07 1012.24 1012.48 1012.74 1012.52 1012.30 1012.38 1012.51 1012.69 1012.82 1012.68 1012.63 1012.42 1012.64 1012.63 1012.24 1012.14 1011.84 1011.48 1011.12 1011.25 1011.64 1011.93
1008.17 1008.57 1009.04 1009.34 1009.35 1009.53 1009.56 1011.00 1011.22 1011.43 1011.25 1011.09 1011.37 1011.43 1011.57 1011.99 1011.92 1012.03 1012.04 1012.32 1012.79 1013.08 1012.70 1012.90 1012.66 1012.71 1012.65 1012.79 1013.00 1013.02 1013.22 1013.29 1012.18 1012.78 1012.80 1011.72 1011.60 1011.16 1010.94 1010.64 1010.95 1011.06 1011.33
1008.10 1008.53 1008.87 1009.70 1009.01 1009.19 1009.12 1010.74 1011.31 1011.61 1011.54 1011.41 1011.58 1011.70 1011.82 1012.32 1012.17 1012.16 1012.38 1012.47 1012.68 1012.82 1012.98 1013.16 1013.15 1013.26 1013.53 1013.60 1013.71 1013.72 1013.67 1013.45 1012.85 1012.32 1012.22 1011.70 1011.43 1011.12 1010.87 1010.27 1010.54 1010.60 1010.53
1008.07 1008.35 1008.73 1009.72 1009.42 1009.50 1009.99 1010.90 1011.15 1011.47 1011.76 1012.02 1012.11 1012.09 1012.29 1012.65 1012.92 1012.60 1012.70 1012.81 1013.12 1013.28 1013.48 1013.72 1013.54 1013.48 1013.60 1013.49 1013.51 1013.45 1013.35 1013.16 1012.59 1012.54 1012.42 1012.32 1011.55 1011.26 1010.65 1010.41 1010.17 1010.23 1009.92
1008.17 1008.50 1009.30 1010.16 1010.23 1009.95 1011.20 1011.21 1011.29 1011.70 1012.19 1012.38 1012.92 1013.06 1013.31 1013.21 1013.13 1012.73 1012.46 1012.64 1013.08 1013.53 1013.70 1013.79 1014.04 1014.08 1013.74 1013.65 1013.61 1013.60 1013.34 1013.04 1012.92 1012.38 1012.85 1012.81 1012.35 1011.90 1011.26 1010.81 1010.56 1010.30 1009.80
Wind_Speed
6 5 5 5 4 5 5 5 5 5 4 5 6 7 7 8 8 5 5 9 10 9 10 10 9 10 11 12 11 12 13 14 14 14 15 15 14 13 13 12 13 14 14
6 6 6 6 6 5 5 5 5 5 4 4 6 6 7 6 7 8 6 5 9 11 11 10 11 11 10 11 11 11 12 13 13 13 14 14 14 14 14 15 14 14 13
8 8 7 6 6 4 7 5 5 4 5 4 5 5 5 5 5 6 5 5 4 8 9 9 9 10 10 10 10 10 9 9 9 11 12 13 13 13 14 14 14 15 14
10 9 8 7 7 4 4 6 5 5 5 4 4 4 5 6 6 7 6 5 4 4 7 8 8 9 10 10 9 7 9 8 8 9 10 12 12 12 13 13 15 13 13
10 9 8 7 7 5 5 5 5 4 5 5 5 4 4 5 5 5 6 6 7 6 5 8 8 9 11 11 10 9 8 7 7 7 7 8 9 10 12 12 13 13 13
10 9 8 8 6 6 5 5 6 4 6 5 5 5 5 6 6 5 6 6 6 8 8 7 7 8 10 11 10 9 8 7 7 7 7 7 6 7 9 9 9 10 10
9 9 8 8 6 7 6 6 5 5 5 5 5 5 6 7 7 6 5 6 6 6 7 7 6 5 6 10 10 11 10 10 9 9 8 7 8 7 7 7 6 5 5
10 9 10 8 7 6 7 6 6 4 4 4 4 3 4 3 4 5 6 6 8 7 7 8 7 8 7 6 8 11 11 11 11 10 9 8 8 9 9 8 7 6 5
13 12 12 10 7 6 7 8 7 7 6 4 7 4 4 3 3 2 4 5 8 7 8 8 8 8 9 7 6 10 12 12 13 13 13 12 10 9 9 9 8 8 7
13 14 13 11 9 7 9 8 6 7 7 7 4 6 5 3 4 3 3 4 6 8 9 7 9 8 8 7 9 9 13 13 14 13 13 12 11 11 10 9 9 8 8
12 13 13 12 9 7 9 9 8 8 7 8 6 3 4 5 5 5 7 2 4 5 6 8 8 7 9 8 8 9 14 14 14 13 12 12 13 13 12 12 10 9 9
9 12 12 10 8 8 10 10 10 9 9 8 7 7 6 5 5 6 7 7 6 2 4 5 8 7 7 8 11 8 14 15 14 14 13 13 13 15 14 13 12 11 10
8 10 10 8 7 9 9 9 10 11 11 10 9 8 8 9 6 5 6 7 6 2 3 6 6 6 7 7 9 12 14 12 12 13 13 14 14 14 15 13 13 13 12
9 9 9 8 8 7 7 7 9 10 10 10 13 11 7 7 7 8 7 5 5 5 4 5 4 5 5 7 7 11 8 11 12 12 13 13 14 15 14 14 14 13 12
8 9 8 6 5 5 7 7 7 10 10 11 11 10 10 8 7 8 7 7 7 9 8 3 5 6 5 6 7 7 6 8 9 10 11 12 13 14 14 13 14 14 12
9 6 5 4 3 2 4 7 8 10 11 10 9 11 10 8 8 5 6 7 7 8 8 2 2 3 3 3 6 5 5 4 12 11 9 9 12 13 14 15 15 14 13
7 6 4 5 7 8 5 7 11 13 12 12 11 11 11 7 6 3 6 6 7 7 8 5 2 4 1 3 5 4 4 4 5 10 10 10 12 13 15 15 16 17 15
8 10 9 7 7 9 14 13 13 12 11 11 11 7 6 6 7 6 5 6 7 8 7 7 1 2 2 6 6 5 4 3 3 2 6 7 8 10 12 14 15 16 16
12 7 5 8 14 14 14 11 10 7 3 5 7 8 6 6 7 5 5 5 6 5 5 5 3 2 2 1 4 3 2 3 3 4 7 7 7 10 13 10 12 13 14
12 8 9 16 18 7 6 9 7 3 4 5 4 6 7 5 5 5 5 6 6 6 3 4 3 1 1 1 2 2 2 2 2 3 0 1 2 3 4 9 11 11 10
10 11 13 13 10 9 4 2 1 1 3 4 3 2 4 5 7 4 5 3 5 3 1 2 2 1 3 4 6 4 4 4 2 3 3 1 3 3 3 9 5 11 13
10 8 4 5 6 6 6 2 3 5 5 2 4 5 6 8 7 6 9 7 4 3 1 1 1 2 1 3 3 5 5 5 3 5 4 5 2 6 6 5 4 8 11
9 9 10 12 12 9 12 2 4 5 4 4 5 6 6 5 7 7 12 13 11 9 6 0 1 2 2 5 7 4 4 4 4 5 5 6 5 6 6 6 7 9 11
11 10 10 9 8 6 12 6 5 4 4 5 5 6 7 6 6 7 8 8 7 6 5 3 4 3 2 3 3 4 5 5 6 5 4 6 2 5 6 6 9 11 10
10 7 6 4 7 6 8 10 8 6 6 6 7 7 7 7 5 5 7 6 4 4 7 6 5 5 5 5 2 2 3 5 6 4 4 7 4 8 8 7 6 4 7
8 8 8 7 5 10 7 10 8 6 8 7 7 7 8 5 3 4 5 4 3 4 3 3 4 6 5 7 8 6 4 4 4 3 3 6 6 5 5 2 5 5 7
Wind_Direction
255 264 272 272 273 290 283 285 288 252 232 225 226 243 241 246 250 249 248 220 239 236 247 247 205 202 194 197 202 209 211 215 218 216 223 227 228 228 226 224 224 219 218
245 260 263 271 278 276 297 285 278 272 270 236 235 240 248 256 250 254 255 254 234 243 234 227 188 190 199 204 199 214 222 222 221 219 226 225 223 226 232 231 228 222 217
238 250 257 260 265 269 274 280 266 254 264 237 242 242 235 264 263 259 251 253 218 210 196 189 191 187 195 208 201 215 214 220 212 207 210 220 220 218 223 231 230 225 219
243 248 256 256 269 265 260 273 271 267 262 250 248 241 248 252 249 247 242 245 235 226 188 200 196 194 190 203 206 209 204 217 205 205 207 216 220 222 224 225 229 229 227
251 248 253 259 259 267 262 274 275 281 281 258 247 252 253 251 244 233 235 229 221 230 209 176 204 215 197 200 201 204 211 207 198 205 212 217 221 217 219 222 228 231 227
243 241 251 260 252 258 242 248 258 258 269 281 265 248 242 244 244 246 234 233 220 224 223 230 194 209 209 200 199 197 193 195 195 193 203 206 203 210 210 208 216 225 228
244 236 248 259 245 249 244 230 252 250 257 250 270 251 247 244 246 237 222 228 220 211 215 219 215 210 196 207 193 184 183 186 189 189 194 191 183 186 177 169 166 172 200
239 243 253 257 254 251 231 229 228 255 253 224 263 288 278 209 227 230 230 226 220 206 209 214 211 218 214 218 199 189 184 183 192 191 185 183 179 172 169 172 176 180 189
234 238 247 255 252 244 238 223 215 222 266 217 227 273 258 282 323 177 224 224 228 221 221 219 218 213 212 214 202 200 197 184 196 192 189 186 185 183 184 191 194 198 199
235 241 246 248 245 245 245 238 223 237 242 258 229 226 245 313 300 289 189 206 225 240 232 230 225 215 214 209 220 215 185 190 197 201 201 193 197 193 199 211 216 210 201
235 235 237 239 240 242 247 243 232 225 234 258 249 208 237 242 238 258 289 224 212 227 232 227 227 224 215 206 212 215 198 195 195 201 203 199 200 205 209 214 219 221 218
225 222 234 239 250 255 246 239 236 232 237 246 258 245 235 230 223 224 246 281 294 264 235 225 224 230 224 214 220 224 196 198 194 194 199 202 202 205 209 213 217 216 218
225 224 222 232 239 243 247 246 234 233 227 231 233 247 248 245 232 231 257 274 281 269 248 237 227 213 210 214 217 201 196 196 200 199 196 200 202 205 208 212 212 216 215
231 223 218 229 246 256 260 257 257 257 245 237 238 231 235 239 236 235 247 248 269 265 246 248 214 218 209 193 187 186 169 195 201 208 204 204 203 206 207 205 203 210 213
233 232 221 228 249 270 287 282 263 258 251 245 242 237 235 232 237 241 231 227 245 277 277 227 232 209 212 189 166 168 178 191 206 212 213 203 205 205 209 205 202 207 205
226 222 217 224 250 302 313 299 287 276 260 249 235 226 232 238 241 223 234 229 232 254 266 305 204 206 191 208 165 188 203 195 206 229 214 207 207 206 207 207 204 205 206
206 170 107 42 357 325 301 289 277 274 264 259 237 216 217 234 238 237 225 215 218 231 246 257 266 85 216 210 180 184 224 256 257 214 208 210 208 204 212 210 208 206 203
146 125 95 40 359 326 311 297 283 276 268 261 248 221 206 223 224 219 210 201 217 219 244 247 91 120 143 172 176 211 242 252 346 272 254 236 233 221 219 213 210 210 199
137 125 77 22 349 321 314 298 285 274 250 211 214 181 151 168 175 177 181 189 211 203 216 248 246 158 129 138 181 184 135 94 321 290 258 247 250 236 219 214 220 211 210
157 162 166 190 227 266 284 294 283 234 176 141 139 139 140 121 123 144 159 213 215 202 206 246 260 162 161 159 128 78 165 187 251 272 340 80 210 214 235 213 210 210 219
172 177 180 198 194 150 178 233 309 284 230 195 138 19 56 112 94 95 134 163 197 171 192 231 287 313 64 342 20 14 338 341 306 352 347 53 333 314 200 193 237 222 215
170 184 198 179 180 132 133 171 235 254 264 212 138 110 84 95 100 97 103 85 49 126 128 301 355 359 35 129 52 10 345 346 348 96 345 295 252 303 294 277 245 227 202
170 186 187 178 180 166 137 209 209 238 219 143 130 117 108 98 108 105 90 85 69 44 43 313 160 48 32 14 357 348 339 298 315 304 321 301 305 287 289 287 240 229 235
194 195 193 200 158 142 121 164 168 184 136 122 116 109 104 102 85 120 115 112 110 102 79 19 24 44 355 358 304 305 307 307 277 272 264 263 221 289 315 292 264 255 240
192 195 155 169 146 101 119 147 160 151 127 107 94 84 94 95 72 73 107 96 87 78 90 56 63 74 80 89 91 258 7 326 341 346 1 311 349 324 310 299 295 249 239
179 141 136 160 134 122 127 128 151 141 136 121 115 103 61 72 96 70 99 90 100 81 63 61 105 99 90 92 60 38 7 347 338 297 68 321 327 343 317 306 329 326 303